Terug naar catalogus

STEP 2

ActiefWetenschapPO
NORAD 23105·PAYLOAD·🇺🇸 United States

Gelanceerd May 19, 1994 vanaf Vandenberg Space Force Base

Loading…

Volgende Passages (komende 24 uur)

TLE

VersSource: Space-Track

Epoch: Sep 14, 2026, 12:07 UTC

1 23105U 94029A   26257.50552019  .00001743  00000-0  16304-3 0  9996
2 23105  81.9344  82.6514 0081045 326.4029  33.2063 14.91088315733192

Volg STEP 2 in realtime met AllMySat

Download on the App Store